Weather History for KBCE - February, 2014

Change the Weather History Date:

Saturday, February 15, 2014

  Actual Average Record
Temperature  
Mean Temperature 42 °F -  
Max Temperature 53 °F 38 °F 53 °F (2014)
Min Temperature 30 °F 12 °F -10 °F (1964)
Degree Days  
Heating Degree Days 24    
Moisture  
Dew Point 22 °F    
Average Humidity 51    
Maximum Humidity 82    
Minimum Humidity 22    
Precipitation  
Precipitation 0.00 in - - ()
Sea Level Pressure  
Sea Level Pressure 30.00 in    
Wind  
Wind Speed 4 mph (SW)    
Max Wind Speed 10 mph    
Max Gust Speed -    
Visibility 10 miles    
Events      
Averages and records for this station are not official NWS values.
T = Trace of Precipitation, MM = Missing Value Source: NWS Daily Summary

Daily Weather History Graph

Daily Weather History Graph

Search for Another Location

Airport or City:

Trip Planner

Search our weather history database for the weather conditions in past years. The results will help you decide how hot, cold, wet, or windy it might be!

Date:

Astronomy

Feb. 15, 2014 Rise Set
Actual Time 7:18 AM MST 6:07 PM MST
Civil Twilight 6:51 AM MST 6:34 PM MST
Nautical Twilight 6:20 AM MST 7:05 PM MST
Astronomical Twilight 5:50 AM MST 7:35 PM MST
Moon 7:09 PM MST (2/15) 7:20 AM MST (2/15)
Length of Visible Light 11h 43m
Length of Day
10h 49m
Waxing Gibbous, 99% of the Moon is Illuminated
Feb 15
Waxing Gibbous
Feb 22
Last Quarter
Mar 1
New
Mar 8
First Quarter
Mar 16
Full

Hourly Weather History & Observations

Time (MST) Temp. Windchill Dew Point Humidity Pressure Visibility Wind Dir Wind Speed Gust Speed Precip Events Conditions
12:53 AM 30.0 °F 26.5 °F 21.9 °F 72% 30.03 in 10.0 mi SW 3.5 mph - N/A   Clear
1:53 AM 35.1 °F 30.1 °F 19.9 °F 54% 29.99 in 10.0 mi SSW 5.8 mph - N/A   Clear
2:53 AM 41.0 °F 38.0 °F 19.0 °F 41% 29.96 in 10.0 mi WSW 4.6 mph - N/A   Clear
3:53 AM 44.1 °F 41.5 °F 18.0 °F 35% 29.94 in 10.0 mi Variable 4.6 mph - N/A   Clear
4:53 AM 44.1 °F 40.1 °F 17.1 °F 34% 29.95 in 10.0 mi South 6.9 mph - N/A   Clear
5:53 AM 39.9 °F 33.4 °F 19.0 °F 43% 29.97 in 10.0 mi South 10.4 mph - N/A   Clear
6:53 AM 41.0 °F 35.8 °F 19.0 °F 41% 30.01 in 10.0 mi SSW 8.1 mph - N/A   Clear
7:53 AM 33.1 °F 27.7 °F 23.0 °F 66% 30.05 in 10.0 mi North 5.8 mph - N/A   Clear
8:53 AM 41.0 °F - 21.9 °F 47% 30.03 in 10.0 mi Calm Calm - N/A   Clear
9:53 AM 42.1 °F - 21.9 °F 45% 30.07 in 10.0 mi Calm Calm - N/A   Clear
10:53 AM 46.0 °F - 21.9 °F 39% 30.05 in 10.0 mi Calm Calm - N/A   Clear
11:53 AM 51.1 °F - 16.0 °F 25% 30.04 in 10.0 mi Calm Calm - N/A   Clear
12:53 PM 53.1 °F - 15.1 °F 22% 30.02 in 10.0 mi Variable 6.9 mph - N/A   Clear
1:53 PM 52.0 °F - 21.9 °F 31% 29.98 in 10.0 mi NNW 6.9 mph - N/A   Clear
2:53 PM 53.1 °F - 21.0 °F 29% 29.94 in 10.0 mi North 4.6 mph - N/A   Clear
3:53 PM 52.0 °F - 17.1 °F 25% 29.92 in 10.0 mi Calm Calm - N/A   Clear
4:53 PM 50.0 °F - 24.1 °F 36% 29.93 in 10.0 mi Calm Calm - N/A   Clear
5:53 PM 39.0 °F 36.8 °F 28.9 °F 67% 30.01 in 10.0 mi South 3.5 mph - N/A   Clear
6:53 PM 35.1 °F - 28.0 °F 76% 30.02 in 10.0 mi Calm Calm - N/A   Clear
7:53 PM 32.0 °F - 27.0 °F 82% 30.07 in 10.0 mi Calm Calm - N/A   Clear
8:53 PM 32.0 °F 28.7 °F 27.0 °F 82% 30.02 in 10.0 mi SW 3.5 mph - N/A   Clear
9:53 PM 30.9 °F - 26.1 °F 82% 30.01 in 10.0 mi Calm Calm - N/A   Clear
10:53 PM 32.0 °F 28.7 °F 25.0 °F 75% 29.99 in 10.0 mi NNE 3.5 mph - N/A   Clear
11:53 PM 30.9 °F - 25.0 °F 79% 29.96 in 10.0 mi Calm Calm - N/A   Clear